Year,Month,Day,Hour,Minute,Value (Times are PST for windspeed in km/hr)
2019,10,26,00,00,9.20
2019,10,26,00,01,4.90
2019,10,26,00,02,3.50
2019,10,26,00,03,6.90
2019,10,26,00,04,8.20
2019,10,26,00,05,6.30
2019,10,26,00,06,4.20
2019,10,26,00,07,7.90
2019,10,26,00,08,6.90
2019,10,26,00,09,4.80
2019,10,26,00,10,6.40
2019,10,26,00,11,9.60
2019,10,26,00,12,9.40
2019,10,26,00,13,5.10
2019,10,26,00,14,8.60
2019,10,26,00,15,14.20
2019,10,26,00,16,11.70
2019,10,26,00,17,10.40
2019,10,26,00,18,5.00
2019,10,26,00,19,9.00
2019,10,26,00,20,5.70
2019,10,26,00,21,7.60
2019,10,26,00,22,9.10
2019,10,26,00,23,6.90
2019,10,26,00,24,9.30
2019,10,26,00,25,9.80
2019,10,26,00,26,9.60
2019,10,26,00,27,9.90
2019,10,26,00,28,4.40
2019,10,26,00,29,9.20
2019,10,26,00,30,9.10
2019,10,26,00,31,7.80
2019,10,26,00,32,8.60
2019,10,26,00,33,11.30
2019,10,26,00,34,5.10
2019,10,26,00,35,3.60
2019,10,26,00,36,5.30
2019,10,26,00,37,12.10
2019,10,26,00,38,11.60
2019,10,26,00,39,4.60
2019,10,26,00,40,5.80
2019,10,26,00,41,5.20
2019,10,26,00,42,8.10
2019,10,26,00,43,3.60
2019,10,26,00,44,5.90
2019,10,26,00,45,7.90
2019,10,26,00,46,4.70
2019,10,26,00,47,4.80
2019,10,26,00,48,4.20
2019,10,26,00,49,8.00
2019,10,26,00,50,3.90
2019,10,26,00,51,6.10
2019,10,26,00,52,7.90
2019,10,26,00,53,6.90
2019,10,26,00,54,5.20
2019,10,26,00,55,7.80
2019,10,26,00,56,3.80
2019,10,26,00,57,3.20
2019,10,26,00,58,1.80
2019,10,26,00,59,3.00
2019,10,26,01,00,4.40
2019,10,26,01,01,5.80
2019,10,26,01,02,9.10
2019,10,26,01,03,3.90
2019,10,26,01,04,7.00
2019,10,26,01,05,9.60
2019,10,26,01,06,5.40
2019,10,26,01,07,4.90
2019,10,26,01,08,2.50
2019,10,26,01,09,6.00
2019,10,26,01,10,8.80
2019,10,26,01,11,6.90
2019,10,26,01,12,4.50
2019,10,26,01,13,7.20
2019,10,26,01,14,4.40
2019,10,26,01,15,5.00
2019,10,26,01,16,6.00
2019,10,26,01,17,5.20
2019,10,26,01,18,2.00
2019,10,26,01,19,4.80
2019,10,26,01,20,4.50
2019,10,26,01,21,6.90
2019,10,26,01,22,8.00
2019,10,26,01,23,7.20
2019,10,26,01,24,4.20
2019,10,26,01,25,8.30
2019,10,26,01,26,3.30
2019,10,26,01,27,5.70
2019,10,26,01,28,4.20
2019,10,26,01,29,3.70
2019,10,26,01,30,7.80
2019,10,26,01,31,3.00
2019,10,26,01,32,3.90
2019,10,26,01,33,3.10
2019,10,26,01,34,4.10
2019,10,26,01,35,3.10
2019,10,26,01,36,4.50
2019,10,26,01,37,4.90
2019,10,26,01,38,1.80
2019,10,26,01,39,1.90
2019,10,26,01,40,6.20
2019,10,26,01,41,7.80
2019,10,26,01,42,8.90
2019,10,26,01,43,9.70
2019,10,26,01,44,4.20
2019,10,26,01,45,6.40
2019,10,26,01,46,5.50
2019,10,26,01,47,3.70
2019,10,26,01,48,4.90
2019,10,26,01,49,4.00
2019,10,26,01,50,3.90
2019,10,26,01,51,3.70
2019,10,26,01,52,2.60
2019,10,26,01,53,1.80
2019,10,26,01,54,0.50
2019,10,26,01,55,0.50
2019,10,26,01,56,1.60
2019,10,26,01,57,5.70
2019,10,26,01,58,3.70
2019,10,26,01,59,3.10
2019,10,26,02,00,6.70
2019,10,26,02,01,6.30
2019,10,26,02,02,4.50
2019,10,26,02,03,6.00
2019,10,26,02,04,2.40
2019,10,26,02,05,3.60
2019,10,26,02,06,4.50
2019,10,26,02,07,4.90
2019,10,26,02,08,2.10
2019,10,26,02,09,1.90
2019,10,26,02,10,7.30
2019,10,26,02,11,3.30
2019,10,26,02,12,4.30
2019,10,26,02,13,8.90
2019,10,26,02,14,2.10
2019,10,26,02,15,11.00
2019,10,26,02,16,9.80
2019,10,26,02,17,5.60
2019,10,26,02,18,13.40
2019,10,26,02,19,12.50
2019,10,26,02,20,5.80
2019,10,26,02,21,11.90
2019,10,26,02,22,13.10
2019,10,26,02,23,7.70
2019,10,26,02,24,6.40
2019,10,26,02,25,15.60
2019,10,26,02,26,5.50
2019,10,26,02,27,5.20
2019,10,26,02,28,12.20
2019,10,26,02,29,10.40
2019,10,26,02,30,14.80
2019,10,26,02,31,11.00
2019,10,26,02,32,8.90
2019,10,26,02,33,4.00
2019,10,26,02,34,2.70
2019,10,26,02,35,4.90
2019,10,26,02,36,15.00
2019,10,26,02,37,15.10
2019,10,26,02,38,14.40
2019,10,26,02,39,10.90
2019,10,26,02,40,14.70
2019,10,26,02,41,17.00
2019,10,26,02,42,8.00
2019,10,26,02,43,11.70
2019,10,26,02,44,15.60
2019,10,26,02,45,8.00
2019,10,26,02,46,14.60
2019,10,26,02,47,7.30
2019,10,26,02,48,12.60
2019,10,26,02,49,9.20
2019,10,26,02,50,10.00
2019,10,26,02,51,16.00
2019,10,26,02,52,15.10
2019,10,26,02,53,8.30
2019,10,26,02,54,11.00
2019,10,26,02,55,13.50
2019,10,26,02,56,4.10
2019,10,26,02,57,11.40
2019,10,26,02,58,9.60
2019,10,26,02,59,7.90
2019,10,26,03,00,8.30
2019,10,26,03,01,4.80
2019,10,26,03,02,8.60
2019,10,26,03,03,8.30
2019,10,26,03,04,7.20
2019,10,26,03,05,5.70
2019,10,26,03,06,4.60
2019,10,26,03,07,9.10
2019,10,26,03,08,2.40
2019,10,26,03,09,1.00
2019,10,26,03,10,3.00
2019,10,26,03,11,8.40
2019,10,26,03,12,5.50
2019,10,26,03,13,6.70
2019,10,26,03,14,4.60
2019,10,26,03,15,5.80
2019,10,26,03,16,4.30
2019,10,26,03,17,4.40
2019,10,26,03,18,6.60
2019,10,26,03,19,6.40
2019,10,26,03,20,6.40
2019,10,26,03,21,6.40
2019,10,26,03,22,3.20
2019,10,26,03,23,3.90
2019,10,26,03,24,3.30
2019,10,26,03,25,1.90
2019,10,26,03,26,1.20
2019,10,26,03,27,1.10
2019,10,26,03,28,3.50
2019,10,26,03,29,5.40
2019,10,26,03,30,4.40
2019,10,26,03,31,2.90
2019,10,26,03,32,3.70
2019,10,26,03,33,4.30
2019,10,26,03,34,1.80
2019,10,26,03,35,3.50
2019,10,26,03,36,4.90
2019,10,26,03,37,6.10
2019,10,26,03,38,5.60
2019,10,26,03,39,5.50
2019,10,26,03,40,3.90
2019,10,26,03,41,6.00
2019,10,26,03,42,2.60
2019,10,26,03,43,4.20
2019,10,26,03,44,1.70
2019,10,26,03,45,3.40
2019,10,26,03,46,5.50
2019,10,26,03,47,4.90
2019,10,26,03,48,3.70
2019,10,26,03,49,3.20
2019,10,26,03,50,1.70
2019,10,26,03,51,0.30
2019,10,26,03,52,0.20
2019,10,26,03,53,2.30
2019,10,26,03,54,1.40
2019,10,26,03,55,3.00
2019,10,26,03,56,1.60
2019,10,26,03,57,3.00
2019,10,26,03,58,3.90
2019,10,26,03,59,2.20
2019,10,26,04,00,4.50
2019,10,26,04,01,3.90
2019,10,26,04,02,3.40
2019,10,26,04,03,1.80
2019,10,26,04,04,2.70
2019,10,26,04,05,5.00
2019,10,26,04,06,4.90
2019,10,26,04,07,2.10
2019,10,26,04,08,1.80
2019,10,26,04,09,3.00
2019,10,26,04,10,1.90
2019,10,26,04,11,2.10
2019,10,26,04,12,2.90
2019,10,26,04,13,3.30
2019,10,26,04,14,3.60
2019,10,26,04,15,3.90
2019,10,26,04,16,2.60
2019,10,26,04,17,1.90
2019,10,26,04,18,2.20
2019,10,26,04,19,3.00
2019,10,26,04,20,4.00
2019,10,26,04,21,0.10
2019,10,26,04,22,1.40
2019,10,26,04,23,3.20
2019,10,26,04,24,3.70
2019,10,26,04,25,5.50
2019,10,26,04,26,5.20
2019,10,26,04,27,1.20
2019,10,26,04,28,0.20
2019,10,26,04,29,1.30
2019,10,26,04,30,2.20
2019,10,26,04,31,0.40
2019,10,26,04,32,0.10
2019,10,26,04,33,0.70
2019,10,26,04,34,1.60
2019,10,26,04,35,0.00
2019,10,26,04,36,0.00
2019,10,26,04,37,3.00
2019,10,26,04,38,2.40
2019,10,26,04,39,3.20
2019,10,26,04,40,2.00
2019,10,26,04,41,2.10
2019,10,26,04,42,1.70
2019,10,26,04,43,1.90
2019,10,26,04,44,1.40
2019,10,26,04,45,3.40
2019,10,26,04,46,1.40
2019,10,26,04,47,2.00
2019,10,26,04,48,1.40
2019,10,26,04,49,1.80
2019,10,26,04,50,1.80
2019,10,26,04,51,4.10
2019,10,26,04,52,3.30
2019,10,26,04,53,2.00
2019,10,26,04,54,3.30
2019,10,26,04,55,2.70
2019,10,26,04,56,1.00
2019,10,26,04,57,1.40
2019,10,26,04,58,1.30
2019,10,26,04,59,1.90
2019,10,26,05,00,4.30
2019,10,26,05,01,3.60
2019,10,26,05,02,2.60
2019,10,26,05,03,4.00
2019,10,26,05,04,2.10
2019,10,26,05,05,3.30
2019,10,26,05,06,0.40
2019,10,26,05,07,1.60
2019,10,26,05,08,5.10
2019,10,26,05,09,4.60
2019,10,26,05,10,5.20
2019,10,26,05,11,2.60
2019,10,26,05,12,2.00
2019,10,26,05,13,2.00
2019,10,26,05,14,3.30
2019,10,26,05,15,2.90
2019,10,26,05,16,1.60
2019,10,26,05,17,1.00
2019,10,26,05,18,0.10
2019,10,26,05,19,0.40
2019,10,26,05,20,2.90
2019,10,26,05,21,3.20
2019,10,26,05,22,4.20
2019,10,26,05,23,3.00
2019,10,26,05,24,2.40
2019,10,26,05,25,0.80
2019,10,26,05,26,4.90
2019,10,26,05,27,0.60
2019,10,26,05,28,2.70
2019,10,26,05,29,4.50
2019,10,26,05,30,3.60
2019,10,26,05,31,2.10
2019,10,26,05,32,1.40
2019,10,26,05,33,0.60
2019,10,26,05,34,2.70
2019,10,26,05,35,6.50
2019,10,26,05,36,4.50
2019,10,26,05,37,2.30
2019,10,26,05,38,0.20
2019,10,26,05,39,2.00
2019,10,26,05,40,4.30
2019,10,26,05,41,2.70
2019,10,26,05,42,2.70
2019,10,26,05,43,3.00
2019,10,26,05,44,2.60
2019,10,26,05,45,1.30
2019,10,26,05,46,2.40
2019,10,26,05,47,5.50
2019,10,26,05,48,3.20
2019,10,26,05,49,2.80
2019,10,26,05,50,1.00
2019,10,26,05,51,3.70
2019,10,26,05,52,5.30
2019,10,26,05,53,4.20
2019,10,26,05,54,1.60
2019,10,26,05,55,3.50
2019,10,26,05,56,5.20
2019,10,26,05,57,3.70
2019,10,26,05,58,2.30
2019,10,26,05,59,3.00
2019,10,26,06,00,3.60
2019,10,26,06,01,3.30
2019,10,26,06,02,0.80
2019,10,26,06,03,1.40
2019,10,26,06,04,1.30
2019,10,26,06,05,0.50
2019,10,26,06,06,0.80
2019,10,26,06,07,3.30
2019,10,26,06,08,4.00
2019,10,26,06,09,3.60
2019,10,26,06,10,1.00
2019,10,26,06,11,0.50
2019,10,26,06,12,3.50
2019,10,26,06,13,2.70
2019,10,26,06,14,0.00
2019,10,26,06,15,2.00
2019,10,26,06,16,1.70
2019,10,26,06,17,1.00
2019,10,26,06,18,4.00
2019,10,26,06,19,2.30
2019,10,26,06,20,1.30
2019,10,26,06,21,0.60
2019,10,26,06,22,2.10
2019,10,26,06,23,2.50
2019,10,26,06,24,2.30
2019,10,26,06,25,1.60
2019,10,26,06,26,0.60
2019,10,26,06,27,1.30
2019,10,26,06,28,2.50
2019,10,26,06,29,4.90
2019,10,26,06,30,2.30
2019,10,26,06,31,1.80
2019,10,26,06,32,2.00
2019,10,26,06,33,3.20
2019,10,26,06,34,3.20
2019,10,26,06,35,3.70
2019,10,26,06,36,5.30
2019,10,26,06,37,3.80
2019,10,26,06,38,4.40
2019,10,26,06,39,4.80
2019,10,26,06,40,3.20
2019,10,26,06,41,2.70
2019,10,26,06,42,1.30
2019,10,26,06,43,2.90
2019,10,26,06,44,1.40
2019,10,26,06,45,5.70
2019,10,26,06,46,1.50
2019,10,26,06,47,0.20
2019,10,26,06,48,1.90
2019,10,26,06,49,2.60
2019,10,26,06,50,2.30
2019,10,26,06,51,2.60
2019,10,26,06,52,4.30
2019,10,26,06,53,4.20
2019,10,26,06,54,3.00
2019,10,26,06,55,3.40
2019,10,26,06,56,1.20
2019,10,26,06,57,2.30
2019,10,26,06,58,4.00
2019,10,26,06,59,1.90
2019,10,26,07,00,1.70
2019,10,26,07,01,2.70
2019,10,26,07,02,3.70
2019,10,26,07,03,2.70
2019,10,26,07,04,3.40
2019,10,26,07,05,2.70
2019,10,26,07,06,1.80
2019,10,26,07,07,1.00
2019,10,26,07,08,1.40
2019,10,26,07,09,1.20
2019,10,26,07,10,0.10
2019,10,26,07,11,0.80
2019,10,26,07,12,0.00
2019,10,26,07,13,0.00
2019,10,26,07,14,3.40
2019,10,26,07,15,1.90
2019,10,26,07,16,0.70
2019,10,26,07,17,5.10
2019,10,26,07,18,2.70
2019,10,26,07,19,1.80
2019,10,26,07,20,1.40
2019,10,26,07,21,1.10
2019,10,26,07,22,2.60
2019,10,26,07,23,2.20
2019,10,26,07,24,5.10
2019,10,26,07,25,1.80
2019,10,26,07,26,0.70
2019,10,26,07,27,1.60
2019,10,26,07,28,1.10
2019,10,26,07,29,1.10
2019,10,26,07,30,1.20
2019,10,26,07,31,2.30
2019,10,26,07,32,0.80
2019,10,26,07,33,2.70
2019,10,26,07,34,5.70
2019,10,26,07,35,3.80
2019,10,26,07,36,4.10
2019,10,26,07,37,2.90
2019,10,26,07,38,1.90
2019,10,26,07,39,3.00
2019,10,26,07,40,1.70
2019,10,26,07,41,3.40
2019,10,26,07,42,3.30
2019,10,26,07,43,3.00
2019,10,26,07,44,4.50
2019,10,26,07,45,4.10
2019,10,26,07,46,4.00
2019,10,26,07,47,4.00
2019,10,26,07,48,1.80
2019,10,26,07,49,1.90
2019,10,26,07,50,2.90
2019,10,26,07,51,4.60
2019,10,26,07,52,4.50
2019,10,26,07,53,4.00
2019,10,26,07,54,4.60
2019,10,26,07,55,2.70
2019,10,26,07,56,4.80
2019,10,26,07,57,6.10
2019,10,26,07,58,3.50
2019,10,26,07,59,4.20
2019,10,26,08,00,2.20
2019,10,26,08,01,1.70
2019,10,26,08,02,3.50
2019,10,26,08,03,2.50
2019,10,26,08,04,4.30
2019,10,26,08,05,6.60
2019,10,26,08,06,4.30
2019,10,26,08,07,8.20
2019,10,26,08,08,3.40
2019,10,26,08,09,5.70
2019,10,26,08,10,6.60
2019,10,26,08,11,3.50
2019,10,26,08,12,4.90
2019,10,26,08,13,4.30
2019,10,26,08,14,7.30
2019,10,26,08,15,9.40
2019,10,26,08,16,7.40
2019,10,26,08,17,2.40
2019,10,26,08,18,7.20
2019,10,26,08,19,7.30
2019,10,26,08,20,6.00
2019,10,26,08,21,3.10
2019,10,26,08,22,5.20
2019,10,26,08,23,2.90
2019,10,26,08,24,4.90
2019,10,26,08,25,4.50
2019,10,26,08,26,6.00
2019,10,26,08,27,9.10
2019,10,26,08,28,4.80
2019,10,26,08,29,6.50
2019,10,26,08,30,5.60
2019,10,26,08,31,8.20
2019,10,26,08,32,4.80
2019,10,26,08,33,5.10
2019,10,26,08,34,2.00
2019,10,26,08,35,1.30
2019,10,26,08,36,4.70
2019,10,26,08,37,4.20
2019,10,26,08,38,4.80
2019,10,26,08,39,8.20
2019,10,26,08,40,5.70
2019,10,26,08,41,2.90
2019,10,26,08,42,3.90
2019,10,26,08,43,3.60
2019,10,26,08,44,2.70
2019,10,26,08,45,4.80
2019,10,26,08,46,6.10
2019,10,26,08,47,4.10
2019,10,26,08,48,4.60
2019,10,26,08,49,2.00
2019,10,26,08,50,3.30
2019,10,26,08,51,1.00
2019,10,26,08,52,1.40
2019,10,26,08,53,3.00
2019,10,26,08,54,4.10
2019,10,26,08,55,1.80
2019,10,26,08,56,4.30
2019,10,26,08,57,3.60
2019,10,26,08,58,3.80
2019,10,26,08,59,2.40
2019,10,26,09,00,3.70
2019,10,26,09,01,5.10
2019,10,26,09,02,1.00
2019,10,26,09,03,1.00
2019,10,26,09,04,3.30
2019,10,26,09,05,3.70
2019,10,26,09,06,2.10
2019,10,26,09,07,2.70
2019,10,26,09,08,3.90
2019,10,26,09,09,5.50
2019,10,26,09,10,5.00
2019,10,26,09,11,4.10
2019,10,26,09,12,4.40
2019,10,26,09,13,4.70
2019,10,26,09,14,4.40
2019,10,26,09,15,5.80
2019,10,26,09,16,5.30
2019,10,26,09,17,4.60
2019,10,26,09,18,5.00
2019,10,26,09,19,4.90
2019,10,26,09,20,4.70
2019,10,26,09,21,7.40
2019,10,26,09,22,7.00
2019,10,26,09,23,2.30
2019,10,26,09,24,5.20
2019,10,26,09,25,6.40
2019,10,26,09,26,4.20
2019,10,26,09,27,7.90
2019,10,26,09,28,4.60
2019,10,26,09,29,7.90
2019,10,26,09,30,4.00
2019,10,26,09,31,9.80
2019,10,26,09,32,6.40
2019,10,26,09,33,12.60
2019,10,26,09,34,10.30
2019,10,26,09,35,10.80
2019,10,26,09,36,11.90
2019,10,26,09,37,13.20
2019,10,26,09,38,7.50
2019,10,26,09,39,10.40
2019,10,26,09,40,5.40
2019,10,26,09,41,3.70
2019,10,26,09,42,10.90
2019,10,26,09,43,13.50
2019,10,26,09,44,9.30
2019,10,26,09,45,8.40
2019,10,26,09,46,3.60
2019,10,26,09,47,6.00
2019,10,26,09,48,13.20
2019,10,26,09,49,13.80
2019,10,26,09,50,12.40
2019,10,26,09,51,10.70
2019,10,26,09,52,13.40
2019,10,26,09,53,8.20
2019,10,26,09,54,9.20
2019,10,26,09,55,12.90
2019,10,26,09,56,10.30
2019,10,26,09,57,9.40
2019,10,26,09,58,16.90
2019,10,26,09,59,16.60
2019,10,26,10,00,10.70
2019,10,26,10,01,5.10
2019,10,26,10,02,5.70
2019,10,26,10,03,5.80
2019,10,26,10,04,1.60
2019,10,26,10,05,2.80
2019,10,26,10,06,6.20
2019,10,26,10,07,7.70
2019,10,26,10,08,19.80
2019,10,26,10,09,8.50
2019,10,26,10,10,6.80
2019,10,26,10,11,8.80
2019,10,26,10,12,11.00
2019,10,26,10,13,9.20
2019,10,26,10,14,4.90
2019,10,26,10,15,9.60
2019,10,26,10,16,6.40
2019,10,26,10,17,5.30
2019,10,26,10,18,9.60
2019,10,26,10,19,7.30
2019,10,26,10,20,6.90
2019,10,26,10,21,10.70
2019,10,26,10,22,13.10
2019,10,26,10,23,15.90
2019,10,26,10,24,11.70
2019,10,26,10,25,6.70
2019,10,26,10,26,5.70
2019,10,26,10,27,7.20
2019,10,26,10,28,7.50
2019,10,26,10,29,8.60
2019,10,26,10,30,9.20
2019,10,26,10,31,12.90
2019,10,26,10,32,14.70
2019,10,26,10,33,14.80
2019,10,26,10,34,13.70
2019,10,26,10,35,16.00
2019,10,26,10,36,8.60
2019,10,26,10,37,11.70
2019,10,26,10,38,15.80
2019,10,26,10,39,9.90
2019,10,26,10,40,9.00
2019,10,26,10,41,11.80
2019,10,26,10,42,14.40
2019,10,26,10,43,8.60
2019,10,26,10,44,8.60
2019,10,26,10,45,8.80
2019,10,26,10,46,8.20
2019,10,26,10,47,3.40
2019,10,26,10,48,11.20
2019,10,26,10,49,5.50
2019,10,26,10,50,7.10
2019,10,26,10,51,6.50
2019,10,26,10,52,4.80
2019,10,26,10,53,4.70
2019,10,26,10,54,8.00
2019,10,26,10,55,16.70
2019,10,26,10,56,15.20
2019,10,26,10,57,17.80
2019,10,26,10,58,11.20
2019,10,26,10,59,4.90
2019,10,26,11,00,5.20
2019,10,26,11,01,6.00
2019,10,26,11,02,9.20
2019,10,26,11,03,16.80
2019,10,26,11,04,19.50
2019,10,26,11,05,14.50
2019,10,26,11,06,7.00
2019,10,26,11,07,6.60
2019,10,26,11,08,7.60
2019,10,26,11,09,12.90
2019,10,26,11,10,11.70
2019,10,26,11,11,5.20
2019,10,26,11,12,11.10
2019,10,26,11,13,10.90
2019,10,26,11,14,13.90
2019,10,26,11,15,13.30
2019,10,26,11,16,14.30
2019,10,26,11,17,7.60
2019,10,26,11,18,6.00
2019,10,26,11,19,9.10
2019,10,26,11,20,12.30
2019,10,26,11,21,8.60
2019,10,26,11,22,12.50
2019,10,26,11,23,9.40
2019,10,26,11,24,9.30
2019,10,26,11,25,6.00
2019,10,26,11,26,7.30
2019,10,26,11,27,3.00
2019,10,26,11,28,5.10
2019,10,26,11,29,6.50
2019,10,26,11,30,2.20
2019,10,26,11,31,4.80
2019,10,26,11,32,4.70
2019,10,26,11,33,4.70
2019,10,26,11,34,7.90
2019,10,26,11,35,7.50
2019,10,26,11,36,11.20
2019,10,26,11,37,8.20
2019,10,26,11,38,5.00
2019,10,26,11,39,9.60
2019,10,26,11,40,6.90
2019,10,26,11,41,12.50
2019,10,26,11,42,18.80
2019,10,26,11,43,15.20
2019,10,26,11,44,11.60
2019,10,26,11,45,14.80
2019,10,26,11,46,14.60
2019,10,26,11,47,7.70
2019,10,26,11,48,16.80
2019,10,26,11,49,13.40
2019,10,26,11,50,8.50
2019,10,26,11,51,7.90
2019,10,26,11,52,10.10
2019,10,26,11,53,11.00
2019,10,26,11,54,8.60
2019,10,26,11,55,7.60
2019,10,26,11,56,11.10
2019,10,26,11,57,11.00
2019,10,26,11,58,12.80
2019,10,26,11,59,13.50
2019,10,26,12,00,10.20
2019,10,26,12,01,7.60
2019,10,26,12,02,5.80
2019,10,26,12,03,8.50
2019,10,26,12,04,11.10
2019,10,26,12,05,13.20
2019,10,26,12,06,7.60
2019,10,26,12,07,12.30
2019,10,26,12,08,10.10
2019,10,26,12,09,6.30
2019,10,26,12,10,3.80
2019,10,26,12,11,8.90
2019,10,26,12,12,7.30
2019,10,26,12,13,3.40
2019,10,26,12,14,4.60
2019,10,26,12,15,6.00
2019,10,26,12,16,3.80
2019,10,26,12,17,11.60
2019,10,26,12,18,9.80
2019,10,26,12,19,6.30
2019,10,26,12,20,12.90
2019,10,26,12,21,10.30
2019,10,26,12,22,9.10
2019,10,26,12,23,12.00
2019,10,26,12,24,9.90
2019,10,26,12,25,5.00
2019,10,26,12,26,3.00
2019,10,26,12,27,3.00
2019,10,26,12,28,1.70
2019,10,26,12,29,7.10
2019,10,26,12,30,11.10
2019,10,26,12,31,10.00
2019,10,26,12,32,7.50
2019,10,26,12,33,6.50
2019,10,26,12,34,10.60
2019,10,26,12,35,10.90
2019,10,26,12,36,6.60
2019,10,26,12,37,6.30
2019,10,26,12,38,14.20
2019,10,26,12,39,8.90
2019,10,26,12,40,4.70
2019,10,26,12,41,4.60
2019,10,26,12,42,10.10
2019,10,26,12,43,15.60
2019,10,26,12,44,15.30
2019,10,26,12,45,8.00
2019,10,26,12,46,12.80
2019,10,26,12,47,6.30
2019,10,26,12,48,3.90
2019,10,26,12,49,8.90
2019,10,26,12,50,7.20
2019,10,26,12,51,5.70
2019,10,26,12,52,3.40
2019,10,26,12,53,8.30
2019,10,26,12,54,12.20
2019,10,26,12,55,6.70
2019,10,26,12,56,3.90
2019,10,26,12,57,11.10
2019,10,26,12,58,12.80
2019,10,26,12,59,7.70
2019,10,26,13,00,4.30
2019,10,26,13,01,9.80
2019,10,26,13,02,9.10
2019,10,26,13,03,4.90
2019,10,26,13,04,7.60
2019,10,26,13,05,2.90
2019,10,26,13,06,2.60
2019,10,26,13,07,2.80
2019,10,26,13,08,5.20
2019,10,26,13,09,4.50
2019,10,26,13,10,3.90
2019,10,26,13,11,5.30
2019,10,26,13,12,6.50
2019,10,26,13,13,7.90
2019,10,26,13,14,12.30
2019,10,26,13,15,6.20
2019,10,26,13,16,4.10
2019,10,26,13,17,7.80
2019,10,26,13,18,2.70
2019,10,26,13,19,6.50
2019,10,26,13,20,10.50
2019,10,26,13,21,7.30
2019,10,26,13,22,4.40
2019,10,26,13,23,15.60
2019,10,26,13,24,3.50
2019,10,26,13,25,4.60
2019,10,26,13,26,4.90
2019,10,26,13,27,3.50
2019,10,26,13,28,12.90
2019,10,26,13,29,7.00
2019,10,26,13,30,11.70
2019,10,26,13,31,17.90
2019,10,26,13,32,14.60
2019,10,26,13,33,9.80
2019,10,26,13,34,9.30
2019,10,26,13,35,8.00
2019,10,26,13,36,5.10
2019,10,26,13,37,3.20
2019,10,26,13,38,5.40
2019,10,26,13,39,3.20
2019,10,26,13,40,2.00
2019,10,26,13,41,0.00
2019,10,26,13,42,0.00
2019,10,26,13,43,0.00
2019,10,26,13,44,0.00
2019,10,26,13,45,0.00
2019,10,26,13,46,0.00
2019,10,26,13,47,1.70
2019,10,26,13,48,2.00
2019,10,26,13,49,4.40
2019,10,26,13,50,3.90
2019,10,26,13,51,7.20
2019,10,26,13,52,9.50
2019,10,26,13,53,6.50
2019,10,26,13,54,10.30
2019,10,26,13,55,8.60
2019,10,26,13,56,10.70
2019,10,26,13,57,7.00
2019,10,26,13,58,3.60
2019,10,26,13,59,7.30
2019,10,26,14,00,9.20
2019,10,26,14,01,10.20
2019,10,26,14,02,4.90
2019,10,26,14,03,4.70
2019,10,26,14,04,8.80
2019,10,26,14,05,8.80
2019,10,26,14,06,4.20
2019,10,26,14,07,5.20
2019,10,26,14,08,3.70
2019,10,26,14,09,6.50
2019,10,26,14,10,5.10
2019,10,26,14,11,2.80
2019,10,26,14,12,7.90
2019,10,26,14,13,2.90
2019,10,26,14,14,7.10
2019,10,26,14,15,5.00
2019,10,26,14,16,6.70
2019,10,26,14,17,5.60
2019,10,26,14,18,4.90
2019,10,26,14,19,13.90
2019,10,26,14,20,4.60
2019,10,26,14,21,5.80
2019,10,26,14,22,7.70
2019,10,26,14,23,7.30
2019,10,26,14,24,10.90
2019,10,26,14,25,9.90
2019,10,26,14,26,9.50
2019,10,26,14,27,6.70
2019,10,26,14,28,6.80
2019,10,26,14,29,2.60
2019,10,26,14,30,6.90
2019,10,26,14,31,5.80
2019,10,26,14,32,5.80
2019,10,26,14,33,7.20
2019,10,26,14,34,10.60
2019,10,26,14,35,5.10
2019,10,26,14,36,7.60
2019,10,26,14,37,8.90
2019,10,26,14,38,10.90
2019,10,26,14,39,3.20
2019,10,26,14,40,1.80
2019,10,26,14,41,3.50
2019,10,26,14,42,5.20
2019,10,26,14,43,6.80
2019,10,26,14,44,6.60
2019,10,26,14,45,1.50
2019,10,26,14,46,11.60
2019,10,26,14,47,8.20
2019,10,26,14,48,4.00
2019,10,26,14,49,3.60
2019,10,26,14,50,4.70
2019,10,26,14,51,8.40
2019,10,26,14,52,4.00
2019,10,26,14,53,3.90
2019,10,26,14,54,6.90
2019,10,26,14,55,8.80
2019,10,26,14,56,3.60
2019,10,26,14,57,5.10
2019,10,26,14,58,3.00
2019,10,26,14,59,1.30
2019,10,26,15,00,6.80
2019,10,26,15,01,9.10
2019,10,26,15,02,6.70
2019,10,26,15,03,2.20
2019,10,26,15,04,1.30
2019,10,26,15,05,7.00
2019,10,26,15,06,8.20
2019,10,26,15,07,4.20
2019,10,26,15,08,4.50
2019,10,26,15,09,6.30
2019,10,26,15,10,4.40
2019,10,26,15,11,5.00
2019,10,26,15,12,6.00
2019,10,26,15,13,8.50
2019,10,26,15,14,9.90
2019,10,26,15,15,10.50
2019,10,26,15,16,7.20
2019,10,26,15,17,2.40
2019,10,26,15,18,5.70
2019,10,26,15,19,9.20
2019,10,26,15,20,5.40
2019,10,26,15,21,3.50
2019,10,26,15,22,3.40
2019,10,26,15,23,7.70
2019,10,26,15,24,3.70
2019,10,26,15,25,3.50
2019,10,26,15,26,6.50
2019,10,26,15,27,1.80
2019,10,26,15,28,4.90
2019,10,26,15,29,3.80
2019,10,26,15,30,3.10
2019,10,26,15,31,2.20
2019,10,26,15,32,2.00
2019,10,26,15,33,0.00
2019,10,26,15,34,3.20
2019,10,26,15,35,4.60
2019,10,26,15,36,1.60
2019,10,26,15,37,3.90
2019,10,26,15,38,6.20
2019,10,26,15,39,4.00
2019,10,26,15,40,9.50
2019,10,26,15,41,7.10
2019,10,26,15,42,5.60
2019,10,26,15,43,2.60
2019,10,26,15,44,2.80
2019,10,26,15,45,1.60
2019,10,26,15,46,2.60
2019,10,26,15,47,3.00
2019,10,26,15,48,3.60
2019,10,26,15,49,7.30
2019,10,26,15,50,1.80
2019,10,26,15,51,2.10
2019,10,26,15,52,2.10
2019,10,26,15,53,3.60
2019,10,26,15,54,4.30
2019,10,26,15,55,2.60
2019,10,26,15,56,2.80
2019,10,26,15,57,4.70
2019,10,26,15,58,2.30
2019,10,26,15,59,2.70
2019,10,26,16,00,5.90
2019,10,26,16,01,3.80
2019,10,26,16,02,4.00
2019,10,26,16,03,3.30
2019,10,26,16,04,3.90
2019,10,26,16,05,4.30
2019,10,26,16,06,4.20
2019,10,26,16,07,4.50
2019,10,26,16,08,3.30
2019,10,26,16,09,5.20
2019,10,26,16,10,4.50
2019,10,26,16,11,4.10
2019,10,26,16,12,1.00
2019,10,26,16,13,2.60
2019,10,26,16,14,4.00
2019,10,26,16,15,5.70
2019,10,26,16,16,7.20
2019,10,26,16,17,2.60
2019,10,26,16,18,3.20
2019,10,26,16,19,3.40
2019,10,26,16,20,2.50
2019,10,26,16,21,2.90
2019,10,26,16,22,3.20
2019,10,26,16,23,1.20
2019,10,26,16,24,4.00
2019,10,26,16,25,3.50
2019,10,26,16,26,5.70
2019,10,26,16,27,4.60
2019,10,26,16,28,4.70
2019,10,26,16,29,6.70
2019,10,26,16,30,8.90
2019,10,26,16,31,6.70
2019,10,26,16,32,6.00
2019,10,26,16,33,4.40
2019,10,26,16,34,5.50
2019,10,26,16,35,2.40
2019,10,26,16,36,7.80
2019,10,26,16,37,3.30
2019,10,26,16,38,4.00
2019,10,26,16,39,4.80
2019,10,26,16,40,7.90
2019,10,26,16,41,4.60
2019,10,26,16,42,3.70
2019,10,26,16,43,10.10
2019,10,26,16,44,7.70
2019,10,26,16,45,6.90
2019,10,26,16,46,4.00
2019,10,26,16,47,1.40
2019,10,26,16,48,3.40
2019,10,26,16,49,2.10
2019,10,26,16,50,2.60
2019,10,26,16,51,2.30
2019,10,26,16,52,2.10
2019,10,26,16,53,1.20
2019,10,26,16,54,0.50
2019,10,26,16,55,1.90
2019,10,26,16,56,3.40
2019,10,26,16,57,3.30
2019,10,26,16,58,1.70
2019,10,26,16,59,3.40
2019,10,26,17,00,3.00
2019,10,26,17,01,5.20
2019,10,26,17,02,1.50
2019,10,26,17,03,1.60
2019,10,26,17,04,4.20
2019,10,26,17,05,5.80
2019,10,26,17,06,7.30
2019,10,26,17,07,3.10
2019,10,26,17,08,2.20
2019,10,26,17,09,4.40
2019,10,26,17,10,2.10
2019,10,26,17,11,2.70
2019,10,26,17,12,2.40
2019,10,26,17,13,4.10
2019,10,26,17,14,7.60
2019,10,26,17,15,2.10
2019,10,26,17,16,6.40
2019,10,26,17,17,3.00
2019,10,26,17,18,4.60
2019,10,26,17,19,3.80
2019,10,26,17,20,7.30
2019,10,26,17,21,4.20
2019,10,26,17,22,2.20
2019,10,26,17,23,1.40
2019,10,26,17,24,1.10
2019,10,26,17,25,5.40
2019,10,26,17,26,2.80
2019,10,26,17,27,2.70
2019,10,26,17,28,1.80
2019,10,26,17,29,2.20
2019,10,26,17,30,1.70
2019,10,26,17,31,3.90
2019,10,26,17,32,2.40
2019,10,26,17,33,2.90
2019,10,26,17,34,2.90
2019,10,26,17,35,4.20
2019,10,26,17,36,4.00
2019,10,26,17,37,4.80
2019,10,26,17,38,5.80
2019,10,26,17,39,4.80
2019,10,26,17,40,4.30
2019,10,26,17,41,3.50
2019,10,26,17,42,3.70
2019,10,26,17,43,3.50
2019,10,26,17,44,2.60
2019,10,26,17,45,3.90
2019,10,26,17,46,2.00
2019,10,26,17,47,3.10
2019,10,26,17,48,3.30
2019,10,26,17,49,3.60
2019,10,26,17,50,2.60
2019,10,26,17,51,4.00
2019,10,26,17,52,4.20
2019,10,26,17,53,2.80
2019,10,26,17,54,1.30
2019,10,26,17,55,2.60
2019,10,26,17,56,7.80
2019,10,26,17,57,5.10
2019,10,26,17,58,2.90
2019,10,26,17,59,3.30
2019,10,26,18,00,2.10